< < Back
Terminal Aerodrome Forecast


Current Version              Previous Versions:   1  2  3  4  5  6  7  8  9  

Terminal Aerodrome Forecast

249
FTUS42 KCHS 210500
TAFSAV
TAF
KSAV 210535Z 2106/2206 03008KT P6SM VCSH OVC004
      TEMPO 2108/2112 4SM -RA BR SCT003 OVC006
     FM211200 02007KT 5SM -RA BKN007 OVC012
     FM211800 02008KT 6SM -RA SCT006 OVC012
     FM220000 03005KT 3SM BR VCSH OVC005=



Latest METAR

821
SAUS80 KWBC 220200 RRB
MTRSAV
METAR KSAV 220153Z 01003KT 4SM -RA BR OVC006 08/07 A3013 RMK AO2 CIG
004V008 SLP201 P0005 T00830072


USA.gov is the U.S. government's official web portal to all federal, state and local government web resources and services.